Location: Marcé
(47.5801°N, 0.3280°W)
Time: 15:36:16
(UTC+01:00)

SR - Pass Details

Date: 07 December 2021
Orbit: 582 x 872 km, 66.7° (Epoch: 22 January)

Event Time Altitude Azimuth Distance (km) Brightness Sun altitude
Rises 08:25:19 0° 323° (NW) 2,825 - -2.3°
Exits shadow 08:25:33 - 323° (NW) 2,727 ? -2.2°
Reaches altitude 10° 08:27:31 10° 321° (NW) 1,935 ? -2.0°
Maximum altitude 08:31:49 67° 239° (WSW) 670 ? -1.3°
Drops below altitude 10° 08:36:20 10° 157° (SSE) 2,035 ? -0.7°
Sets 08:38:42 0° 155° (SSE) 2,985 ? -0.4°
